[[{"header":{"parameterUnit":"m.s-1","parameterCategory":1,"la1":30.2991,"la2":30.254,"lo1":-89.0895,"lo2":-89.0444,"dx":0.0017,"dy":0.0017,"nx":28,"ny":28,"refTime":"2022-11-21T15:00:00:Z","depth":0,"parameterNumber":2,"parameterNumberName":"U-component_of_WINDS"},"data":[0,0,0,0,0,0,0,0,0,0,0,0,0,0,0,0,0,0,0,0,0,0,0,0,0,0,0,0,0,0,0,0,0,0,0,0,0,0,0,0,0,0,0,0,0,0,0,0,0,0,0,0,0,0,0,0,0,0,-3.3596,-3.3597,0,-3.3692,-3.3693,-3.3694,-3.3568,-3.3564,-3.3559,-3.3555,-3.3657,-3.3663,-3.367,0,0,0,0,0,0,0,0,0,0,0,0,0,-3.3306,-3.3312,-3.3596,-3.3597,-3.3598,-3.3692,-3.3693,-3.3694,-3.3569,-3.3564,-3.3558,-3.3553,-3.3654,-3.3662,-3.3671,0,0,0,0,0,0,0,0,0,0,0,0,0,-3.342,-3.3314,-3.3596,-3.3547,-3.3544,-3.3691,-3.3693,-3.3694,-3.357,-3.3564,-3.3557,-3.355,-3.3652,-3.3662,-3.3672,-3.3873,0,0,-3.3704,-3.3708,0,0,0,0,0,0,0,0,-3.3414,-3.3431,-3.3553,-3.3551,-3.3547,-3.3611,-3.3628,-3.3754,-3.3572,-3.356,-3.3555,-3.3547,-3.3647,-3.3657,-3.3691,-3.3878,-3.3882,-3.3705,-3.3711,-3.3715,-3.3718,0,0,0,0,0,0,0,-3.3406,-3.3426,-3.3634,-3.3555,-3.3551,-3.3521,-3.353,-3.3651,-3.3641,-3.3561,-3.3552,-3.3565,-3.3644,-3.3681,-3.3692,-3.3883,-3.3704,-3.3714,-3.372,-3.3724,-3.424,-3.4247,0,0,0,0,0,0,-3.3404,-3.342,-3.3631,-3.3637,-3.3462,-3.3532,-3.3541,-3.3597,-3.3639,-3.3639,-3.3571,-3.3559,-3.3666,-3.368,-3.3695,-3.3934,-3.3715,-3.3725,-3.3731,-3.4232,-3.4241,-3.425,0,0,0,0,0,0,-3.3398,-3.3424,-3.3627,-3.3526,-3.355,-3.3544,-3.3608,-3.3603,-3.3639,-3.3647,-3.3644,-3.361,-3.3662,-3.368,-3.3829,-3.3936,-3.373,-3.3739,-3.4224,-3.4235,-3.4246,-3.4413,0,0,0,0,0,0,-3.339,-3.3422,-3.3499,-3.3529,-3.3555,-3.376,-3.3614,-3.361,-3.3657,-3.3643,-3.3683,-3.3683,-3.3658,-3.3814,-3.384,-3.3946,-3.3747,-3.4214,-3.4229,-3.4242,-3.4398,-3.4428,-3.4454,0,0,0,0,0,-3.338,-3.3542,-3.3503,-3.3529,-3.365,-3.3766,-3.3781,-3.3748,-3.3666,-3.3743,-3.3747,-3.3682,-3.3919,-3.3831,-3.3858,-3.3969,-3.4207,-3.4225,-3.4241,-3.4385,-3.4422,-3.4454,0,0,0,0,0,0,-3.3527,-3.3546,-3.3502,-3.3679,-3.3722,-3.3745,-3.3841,-3.3788,-3.3856,-3.384,-3.3796,-3.3806,-3.3966,-3.3981,-3.3883,-3.4166,-3.405,-3.4073,-3.415,-3.4186,-3.4213,-3.4208,-3.3756,0,0,0,0,0,-3.3579,-3.367,-3.3682,-3.3837,-3.3861,-3.3847,-3.3896,-3.3866,-3.391,-3.3927,-3.3943,-3.3988,-3.4072,-3.4129,-3.4207,-3.4398,-3.4406,-3.4488,-3.4516,-3.4539,-3.4561,-3.4664,-3.4701,-3.4305,-3.4304,-3.4304,0,0,-3.3689,-3.3711,-3.3772,-3.3867,-3.3897,-3.3993,-3.3864,-3.3971,-3.4043,-3.3944,-3.4086,-3.4098,-3.4145,-3.4317,-3.4393,-3.4335,-3.4671,-3.4561,-3.4579,-3.4588,-3.4685,-3.4722,-3.4756,-3.4316,-3.4314,-3.4312,0,0,-3.394,-3.3965,-3.4097,-3.4128,-3.4174,-3.4164,-3.4196,-3.4226,-3.4231,-3.4371,-3.4299,-3.4383,-3.453,-3.4567,-3.4605,-3.4867,-3.4809,-3.4893,-3.5043,-3.5143,-3.5174,-3.5202,-3.5297,-3.5332,-3.4914,-3.4914,-3.4915,0,-3.4072,-3.4213,-3.4171,-3.4284,-3.4329,-3.4241,-3.4375,-3.4408,-3.4478,-3.4511,-3.4445,-3.4626,-3.4652,-3.483,-3.4894,-3.4927,-3.4963,-3.489,-3.5173,-3.52,-3.5225,-3.5316,-3.5351,-3.4924,-3.4923,-3.4922,-3.4921,0,-3.4374,-3.4473,-3.4574,-3.4643,-3.4698,-3.4821,-3.4798,-3.4859,-3.4823,-3.482,-3.4965,-3.4992,-3.5074,-3.5113,-3.5081,-3.5288,-3.5251,-3.518,-3.5063,-3.5274,-3.5358,-3.5392,-3.4939,-3.4935,-3.4932,-3.493,0,0,-3.4723,-3.4764,-3.4803,-3.4832,-3.4875,-3.4952,-3.507,-3.5149,-3.5203,-3.5253,-3.5353,-3.5477,-3.5411,-3.5454,-3.5424,-3.5512,-3.572,-3.543,-3.543,-3.5485,-3.5951,-3.6007,-3.6047,-3.568,-3.5686,-3.5691,-3.5948,0,-3.4975,-3.5179,-3.5144,-3.5343,-3.5435,-3.5352,-3.5455,-3.5493,-3.5493,-3.5571,-3.5569,-3.566,-3.5565,-3.559,-3.5673,-3.5677,-3.5813,-3.5657,-3.5774,-3.5779,-3.5768,-3.6091,-3.615,-3.6391,-3.598,-3.5986,-3.599,0,-3.5297,-3.5358,-3.5566,-3.5594,-3.5631,-3.5725,-3.5794,-3.5869,-3.591,-3.5904,-3.5951,-3.5904,-3.6022,-3.5901,-3.6064,-3.5959,-3.6004,-3.6013,-3.6021,-3.6034,-3.5899,-3.6114,-3.6467,-3.6504,-3.6041,-3.6037,-3.6033,0,-3.5533,-3.5667,-3.5809,-3.5837,-3.5873,-3.594,-3.5959,-3.5992,-3.6042,-3.6102,-3.6134,-3.6208,-3.6249,-3.6307,-3.6282,-3.6196,-3.6451,-3.6327,-3.645,-3.6451,-3.651,-3.6508,-3.6878,-3.6535,-3.6534,-3.6534,-3.6533,0,-3.582,-3.5952,-3.5916,-3.6004,-3.6148,-3.6105,-3.6249,-3.6257,-3.6288,-3.6376,-3.6308,-3.6393,-3.6352,-3.6434,-3.6414,-3.6553,-3.6571,-3.657,-3.6564,-3.6578,-3.6579,-3.661,-3.6593,-3.6543,-3.6541,-3.6539,-3.6538,0,-3.611,-3.6091,-3.6241,-3.6261,-3.6269,-3.6375,-3.6393,-3.6475,-3.6468,-3.658,-3.6604,-3.6594,-3.6686,-3.6665,-3.6767,-3.6753,-3.6929,-3.69,-3.6915,-3.6909,-3.7034,-3.7024,-3.7439,-3.7492,-3.7113,-3.7117,-3.712,0,-3.6296,-3.6395,-3.6426,-3.6479,-3.6502,-3.659,-3.6639,-3.66,-3.6655,-3.6708,-3.6785,-3.687,-3.6937,-3.7089,-3.7091,-3.7168,-3.7142,-3.7282,-3.7153,-3.7164,-3.7147,-3.7142,-3.7153,-3.7309,-3.7313,-3.7317,-3.732,0,-3.6629,-3.6614,-3.6688,-3.6759,-3.682,-3.6874,-3.6922,-3.697,-3.6934,-3.7,-3.7092,-3.7144,-3.7246,-3.7333,-3.7404,-3.7422,-3.7367,-3.7359,-3.7392,-3.741,-3.7415,-3.7416,-3.6988,-3.7351,-3.7348,-3.7346,-3.7344,-3.7343,-3.6874,-3.6958,-3.6993,-3.7077,-3.7108,-3.7154,-3.7233,-3.7234,-3.7311,-3.7391,-3.7363,-3.7469,-3.7506,-3.7595,-3.7623,-3.7706,-3.7653,-3.77,-3.7713,-3.7726,-3.7742,-3.7399,-3.7718,-3.7717,-3.7716,-3.7715,-3.7715,0,-3.7205,-3.7222,-3.73,-3.7369,-3.7435,-3.7374,-3.7423,-3.7483,-3.7578,-3.7616,-3.7683,-3.779,-3.7873,-3.788,-3.7959,-3.8024,-3.8,-3.8046,-3.8042,-3.8048,-3.7784,-3.7749,-3.8064,-3.8064,-3.8064,-3.8064,-3.8063,-3.8063,-3.7385,-3.7524,-3.7514,-3.7667,-3.7683,-3.7787,-3.7821,-3.7863,-3.7893,-3.8015,-3.8084,-3.8087,-3.8114,-3.8193,-3.8266,-3.8266,-3.8299,-3.8356,-3.8347,-3.8101,-3.8066,-3.8033,-3.8,-3.8363,-3.8363,-3.8603,-3.8606,-3.8607]},{"header":{"parameterUnit":"m.s-1","parameterCategory":1,"la1":30.2991,"la2":30.254,"lo1":-89.0895,"lo2":-89.0444,"dx":0.0017,"dy":0.0017,"nx":28,"ny":28,"refTime":"2022-11-21T15:00:00:Z","depth":0,"parameterNumber":3,"parameterNumberName":"V-component_of_WINDS"},"data":[0,0,0,0,0,0,0,0,0,0,0,0,0,0,0,0,0,0,0,0,0,0,0,0,0,0,0,0,0,0,0,0,0,0,0,0,0,0,0,0,0,0,0,0,0,0,0,0,0,0,0,0,0,0,0,0,0,0,-4.0617,-4.0617,0,-4.0673,-4.0674,-4.0674,-4.0618,-4.0616,-4.0613,-4.0611,-4.0666,-4.067,-4.0673,0,0,0,0,0,0,0,0,0,0,0,0,0,-4.0457,-4.046,-4.0617,-4.0618,-4.0618,-4.0673,-4.0674,-4.0674,-4.0618,-4.0616,-4.0613,-4.061,-4.0665,-4.0669,-4.0674,0,0,0,0,0,0,0,0,0,0,0,0,0,-4.0521,-4.0461,-4.0617,-4.0597,-4.0596,-4.0673,-4.0674,-4.0675,-4.0619,-4.0615,-4.0612,-4.0609,-4.0664,-4.0669,-4.0674,-4.0773,0,0,-4.069,-4.0693,0,0,0,0,0,0,0,0,-4.0518,-4.0527,-4.0599,-4.0598,-4.0597,-4.0635,-4.0637,-4.0707,-4.062,-4.061,-4.0611,-4.0607,-4.0659,-4.0664,-4.0682,-4.0775,-4.0778,-4.0691,-4.0694,-4.0696,-4.0698,0,0,0,0,0,0,0,-4.0513,-4.0524,-4.0639,-4.06,-4.0599,-4.0584,-4.0589,-4.065,-4.0652,-4.0611,-4.0607,-4.0614,-4.0657,-4.0677,-4.0683,-4.0779,-4.0691,-4.0695,-4.0699,-4.0701,-4.0953,-4.0957,0,0,0,0,0,0,-4.0511,-4.0521,-4.0637,-4.0641,-4.0548,-4.0589,-4.0595,-4.0626,-4.0651,-4.0652,-4.0617,-4.0611,-4.0669,-4.0676,-4.0684,-4.08,-4.0696,-4.0701,-4.0704,-4.095,-4.0954,-4.0958,0,0,0,0,0,0,-4.0508,-4.0522,-4.0635,-4.058,-4.0593,-4.0596,-4.0631,-4.0629,-4.0648,-4.0656,-4.0656,-4.0637,-4.0667,-4.0677,-4.0751,-4.0801,-4.0704,-4.0708,-4.0946,-4.0951,-4.0956,-4.1033,0,0,0,0,0,0,-4.0504,-4.0521,-4.056,-4.0581,-4.0596,-4.0702,-4.0634,-4.0633,-4.0658,-4.0651,-4.0675,-4.0675,-4.0665,-4.0743,-4.0756,-4.0807,-4.0712,-4.0941,-4.0948,-4.0954,-4.1026,-4.104,-4.1053,0,0,0,0,0,-4.0498,-4.058,-4.0562,-4.0577,-4.0645,-4.0705,-4.0714,-4.0701,-4.0662,-4.07,-4.0705,-4.0674,-4.0794,-4.0751,-4.0765,-4.0818,-4.0938,-4.0946,-4.0954,-4.102,-4.1037,-4.1052,0,0,0,0,0,0,-4.0564,-4.0582,-4.0563,-4.0654,-4.0679,-4.0696,-4.0743,-4.072,-4.0756,-4.0748,-4.073,-4.0736,-4.0814,-4.0823,-4.0776,-4.0913,-4.0859,-4.087,-4.0905,-4.0921,-4.0934,-4.093,-4.0717,0,0,0,0,0,-4.0589,-4.0638,-4.0651,-4.0729,-4.0743,-4.0741,-4.0767,-4.0755,-4.0779,-4.0789,-4.0799,-4.0823,-4.0865,-4.0894,-4.0934,-4.1027,-4.103,-4.107,-4.1083,-4.1094,-4.1104,-4.1152,-4.1169,-4.0984,-4.0984,-4.0984,0,0,-4.0642,-4.0658,-4.0689,-4.0743,-4.0761,-4.081,-4.075,-4.0805,-4.0841,-4.0797,-4.0868,-4.0876,-4.0901,-4.0985,-4.1022,-4.0995,-4.1155,-4.1104,-4.1113,-4.1117,-4.1162,-4.1179,-4.1195,-4.099,-4.0989,-4.0988,0,0,-4.0762,-4.078,-4.0847,-4.0865,-4.0893,-4.0891,-4.0906,-4.0927,-4.093,-4.1001,-4.0968,-4.101,-4.1084,-4.1103,-4.1122,-4.1247,-4.122,-4.1261,-4.133,-4.1377,-4.1391,-4.1404,-4.1447,-4.1463,-4.127,-4.1271,-4.1271,0,-4.0824,-4.0898,-4.0884,-4.0941,-4.0964,-4.0927,-4.0993,-4.1011,-4.105,-4.1067,-4.1036,-4.1127,-4.1141,-4.1228,-4.1258,-4.1276,-4.1292,-4.1258,-4.1391,-4.1403,-4.1415,-4.1456,-4.1473,-4.1275,-4.1275,-4.1274,-4.1274,0,-4.0971,-4.1023,-4.1073,-4.1112,-4.1141,-4.1203,-4.1196,-4.1227,-4.1212,-4.1212,-4.1283,-4.1299,-4.134,-4.136,-4.1346,-4.1444,-4.1426,-4.1394,-4.1338,-4.1438,-4.1476,-4.1491,-4.1282,-4.128,-4.1279,-4.1278,0,0,-4.1136,-4.1165,-4.1183,-4.1199,-4.1226,-4.1265,-4.1323,-4.1364,-4.139,-4.1418,-4.1465,-4.1528,-4.1497,-4.1519,-4.1507,-4.1548,-4.1644,-4.151,-4.151,-4.1533,-4.1751,-4.1775,-4.1793,-4.1626,-4.1629,-4.1631,-4.1748,0,-4.1257,-4.136,-4.1347,-4.1445,-4.1491,-4.1455,-4.1506,-4.1527,-4.1528,-4.1567,-4.1568,-4.1612,-4.1569,-4.1582,-4.1621,-4.1624,-4.1687,-4.1616,-4.1669,-4.1671,-4.1663,-4.1813,-4.1839,-4.1949,-4.1763,-4.1766,-4.1768,0,-4.1411,-4.1444,-4.1547,-4.1564,-4.1583,-4.1629,-4.1664,-4.1702,-4.1724,-4.1722,-4.1745,-4.1725,-4.1782,-4.1726,-4.1803,-4.1754,-4.1775,-4.1779,-4.1783,-4.1787,-4.1725,-4.182,-4.1984,-4.2,-4.1791,-4.1789,-4.1788,0,-4.1519,-4.1589,-4.1659,-4.1674,-4.1696,-4.1729,-4.174,-4.1759,-4.1783,-4.1813,-4.1829,-4.1865,-4.1885,-4.1913,-4.1902,-4.1863,-4.1981,-4.1924,-4.1979,-4.198,-4.2006,-4.2004,-4.2174,-4.2021,-4.2021,-4.202,-4.202,0,-4.1655,-4.1719,-4.1708,-4.1751,-4.182,-4.1804,-4.1873,-4.1879,-4.1896,-4.1938,-4.1909,-4.1949,-4.1932,-4.1971,-4.1962,-4.2026,-4.2036,-4.2035,-4.2032,-4.2037,-4.2037,-4.205,-4.2042,-4.2025,-4.2024,-4.2023,-4.2022,0,-4.1788,-4.1783,-4.1857,-4.1871,-4.1876,-4.1927,-4.1939,-4.1978,-4.1977,-4.203,-4.2042,-4.204,-4.2083,-4.2075,-4.2123,-4.2118,-4.2197,-4.2185,-4.219,-4.2187,-4.2242,-4.2237,-4.2426,-4.2449,-4.2282,-4.2283,-4.2285,0,-4.1874,-4.1922,-4.1942,-4.1968,-4.1981,-4.2024,-4.2049,-4.2034,-4.2061,-4.2088,-4.2124,-4.2165,-4.2197,-4.2267,-4.2269,-4.2305,-4.2293,-4.2357,-4.2298,-4.2302,-4.2293,-4.229,-4.2293,-4.2368,-4.237,-4.2372,-4.2373,0,-4.2027,-4.2022,-4.2059,-4.2096,-4.2126,-4.2153,-4.2178,-4.2201,-4.2188,-4.2219,-4.2263,-4.2288,-4.2337,-4.2377,-4.241,-4.2419,-4.2394,-4.2391,-4.2406,-4.2411,-4.2412,-4.2411,-4.2221,-4.2387,-4.2386,-4.2385,-4.2384,-4.2383,-4.2139,-4.2179,-4.2199,-4.224,-4.2257,-4.228,-4.2318,-4.2321,-4.2358,-4.2396,-4.2385,-4.2435,-4.2453,-4.2495,-4.2508,-4.2545,-4.2521,-4.2543,-4.2548,-4.2553,-4.2559,-4.2406,-4.2551,-4.2551,-4.2551,-4.255,-4.255,0,-4.2289,-4.23,-4.2338,-4.2373,-4.2406,-4.2379,-4.2404,-4.2433,-4.2477,-4.2497,-4.2529,-4.2578,-4.2617,-4.2621,-4.2657,-4.2686,-4.2675,-4.2696,-4.2693,-4.2695,-4.2579,-4.2563,-4.2704,-4.2704,-4.2704,-4.2704,-4.2704,-4.2704,-4.2371,-4.2438,-4.2435,-4.2508,-4.2517,-4.2566,-4.2583,-4.2603,-4.2619,-4.2676,-4.2707,-4.271,-4.2723,-4.2759,-4.2793,-4.2793,-4.2807,-4.2832,-4.2828,-4.2719,-4.2704,-4.2689,-4.2673,-4.2835,-4.2836,-4.294,-4.2941,-4.2942]}]]